Location: Seattle
(47.6064°N, 122.3308°W)
Time: 01:47:08
(UTC-08:00)

A-11 Canister half - Pass Details

Date: 04 December 2020
Orbit: 1524 x 1684 km, 47.3° (Epoch: 27 January)

Event Time Altitude Azimuth Distance (km) Brightness Sun altitude
Rises 02:50:12 0° 195° (SSW) 4,908 - -47.7°
Reaches altitude 10° 02:54:00 10° 184° (S) 3,933 - -47.1°
Exits shadow 03:00:42 26° 142° (SE) 2,861 10.4 -46.0°
Maximum altitude 03:01:54 27° 132° (SE) 2,830 10.4 -45.8°
Drops below altitude 10° 03:09:46 10° 80° (E) 3,935 11.7 -44.6°
Sets 03:13:32 0° 69° (ENE) 4,911 12.4 -44.0°
